Regional Weather Roundup
Issued by NWS

Home | Current Version | Previous Version | Graphics & Text | Print | Product List | Glossary On
Versions: 1 2 3 4 5 6 7 8 9 10 11 12 13 14 15 16 17 18 19 20 21 22 23 24 25 26 27 28 29 30 31 32 33 34 35 36 37 38 39 40 41 42 43 44 45 46 47 48 49 50
000
ASUS43 KLMK 241310
RWRKY
KENTUCKY REGIONAL WEATHER ROUNDUP
NATIONAL WEATHER SERVICE LOUISVILLE KY
900 AM EDT TUE MAY 24 2016

NOTE "FAIR" INDICATES FEW OR NO CLOUDS BELOW 12,000 FEET
WITH NO SIGNIFICANT WEATHER AND/OR OBSTRUCTIONS TO VISIBILITY.

KYZ001>023-026-027-061>063-070>075-241400-
WESTERN AND SOUTH CENTRAL KENTUCKY

CITY           SKY/WX    TMP DP  RH WIND       PRES   REMARKS
PADUCAH        CLOUDY    67  58  72 S3        30.05R
HENDERSON      MOSUNNY   66  52  59 S3        30.06R
OWENSBORO      SUNNY     66  52  60 SE7       30.09R
HOPKINSVILLE   NOT AVBL
BOWLING GREEN  MOSUNNY   62  54  74 CALM      30.12R
GLASGOW        SUNNY     62  52  70 E3        30.12R
$$

KYZ024-025-028>034-038-045-046-053-241400-
NORTH CENTRAL KENTUCKY

CITY           SKY/WX    TMP DP  RH WIND       PRES   REMARKS
LOUISVILLE/SDF MOSUNNY   63  52  67 SE3       30.11R
LOUISVILLE/LOU SUNNY     64  53  67 SE3       30.12R
FORT KNOX      NOT AVBL
$$

KYZ035>037-039>044-047>052-055>060-089>105-241400-
NORTHEAST KENTUCKY

CITY           SKY/WX    TMP DP  RH WIND       PRES   REMARKS
LEXINGTON      SUNNY     65  54  67 S5        30.13R
COVINGTON      MOSUNNY   65  54  67 S8        30.12R
FRANKFORT      SUNNY     62  52  69 CALM      30.12R
$$

KYZ054-064>069-076>088-106>120-241400-
SOUTHEAST KENTUCKY

CITY           SKY/WX    TMP DP  RH WIND       PRES   REMARKS
JACKSON        SUNNY     61  50  67 CALM      30.16R
LONDON         SUNNY     61  52  72 SE3       30.15R
SOMERSET       SUNNY     59  50  72 CALM      30.16R
MIDDLESBORO    SUNNY     56  52  86 CALM      30.18R
MONTICELLO     SUNNY     63  54  72 CALM      30.16R
$$





USA.gov is the U.S. government's official web portal to all federal, state and local government web resources and services.